AVA8423 SKCG-SKBO

Flight info

Callsign AVA8423
Flight time 0h 24m
Altitude 37000
Route ILMIK2A AKPEK UQ121 ISVAT ISVAT5E
Aircraft A320/M-SDE3FGHIRWY/LB1

Departure

Time 2026-04-21 03:16
Airport Rafael Nuñez International Airport (SKCG)

Arrival

Time 2026-04-21 03:40
Airport El Dorado International Airport (SKBO)
Time Latitude Longitude Altitude Speed Heading
2026-04-21 02:47 10.44531 -75.51551 51 ft 0 kts 270°
2026-04-21 03:07 10.44531 -75.51544 24 ft 4 kts 270°
2026-04-21 03:08 10.44531 -75.51521 51 ft 3 kts 268°
2026-04-21 03:08 10.44537 -75.51498 51 ft 4 kts 225°
2026-04-21 03:08 10.44553 -75.51479 50 ft 4 kts 243°
2026-04-21 03:08 10.44568 -75.51460 49 ft 4 kts 194°
2026-04-21 03:09 10.44583 -75.51458 51 ft 2 kts 181°
2026-04-21 03:09 10.44585 -75.51458 51 ft 0 kts 182°
2026-04-21 03:11 10.44583 -75.51458 51 ft 2 kts 181°
2026-04-21 03:12 10.44556 -75.51393 51 ft 19 kts 94°
2026-04-21 03:12 10.44526 -75.51289 51 ft 17 kts 146°
2026-04-21 03:12 10.44366 -75.51284 51 ft 29 kts 182°
2026-04-21 03:12 10.44169 -75.51293 51 ft 28 kts 181°
2026-04-21 03:13 10.43968 -75.51298 51 ft 29 kts 181°
2026-04-21 03:13 10.43765 -75.51306 51 ft 29 kts 182°
2026-04-21 03:13 10.43562 -75.51318 51 ft 29 kts 185°
2026-04-21 03:13 10.43360 -75.51327 51 ft 29 kts 181°
2026-04-21 03:14 10.43229 -75.51317 48 ft 10 kts 144°
2026-04-21 03:14 10.43182 -75.51270 51 ft 9 kts 136°
2026-04-21 03:14 10.43139 -75.51234 51 ft 7 kts 152°
2026-04-21 03:14 10.43094 -75.51233 49 ft 6 kts 190°
2026-04-21 03:15 10.43068 -75.51256 51 ft 4 kts 245°
2026-04-21 03:15 10.43067 -75.51296 51 ft 10 kts 269°
2026-04-21 03:15 10.43144 -75.51334 49 ft 25 kts
2026-04-21 03:15 10.43562 -75.51315 51 ft 94 kts
2026-04-21 03:16 10.44401 -75.51282 53 ft 145 kts
2026-04-21 03:16 10.45446 -75.51238 618 ft 145 kts
2026-04-21 03:16 10.46439 -75.51206 1281 ft 144 kts
2026-04-21 03:16 10.47493 -75.51162 1641 ft 161 kts
2026-04-21 03:17 10.48693 -75.51109 1878 ft 184 kts
2026-04-21 03:17 10.50023 -75.50924 2120 ft 204 kts 26°
2026-04-21 03:17 10.50991 -75.49885 2677 ft 212 kts 69°
2026-04-21 03:17 10.51009 -75.48389 3327 ft 222 kts 109°
2026-04-21 03:18 10.50000 -75.47200 4027 ft 231 kts 149°
2026-04-21 03:18 10.44922 -75.45495 6476 ft 240 kts 162°
2026-04-21 03:18 10.38269 -75.44493 9207 ft 262 kts 189°
2026-04-21 03:18 10.30261 -75.45781 10870 ft 327 kts 187°
2026-04-21 03:19 10.20811 -75.47241 13397 ft 350 kts 188°
2026-04-21 03:19 10.11026 -75.48776 15762 ft 362 kts 188°
2026-04-21 03:19 10.00875 -75.50360 17961 ft 376 kts 187°
2026-04-21 03:19 9.90344 -75.51998 19822 ft 388 kts 187°
2026-04-21 03:20 9.79493 -75.53674 21581 ft 401 kts 187°
2026-04-21 03:20 9.68308 -75.55415 23239 ft 413 kts 187°
2026-04-21 03:20 9.56833 -75.57196 24669 ft 421 kts 187°
2026-04-21 03:20 9.45131 -75.59017 26075 ft 428 kts 187°
2026-04-21 03:21 9.33271 -75.60859 27418 ft 435 kts 188°
2026-04-21 03:21 9.21190 -75.62737 28694 ft 442 kts 188°
2026-04-21 03:21 9.08980 -75.64626 29965 ft 447 kts 189°
2026-04-21 03:21 8.96594 -75.66542 31017 ft 451 kts 189°
2026-04-21 03:22 8.84120 -75.68466 32093 ft 453 kts 189°
2026-04-21 03:22 8.71739 -75.70378 33635 ft 445 kts 189°
2026-04-21 03:22 8.59600 -75.72250 34922 ft 439 kts 189°
2026-04-21 03:22 8.47559 -75.74114 36030 ft 435 kts 189°
2026-04-21 03:23 8.35647 -75.75951 36980 ft 432 kts 189°
2026-04-21 03:23 8.23876 -75.77766 36987 ft 426 kts 189°
2026-04-21 03:23 8.00450 -75.81330 36999 ft 422 kts 184°
2026-04-21 03:24 7.88791 -75.79602 37002 ft 427 kts 169°
2026-04-21 03:24 7.77137 -75.77347 36945 ft 427 kts 169°
2026-04-21 03:24 7.53858 -75.72706 37076 ft 426 kts 169°
2026-04-21 03:25 7.30552 -75.68071 37103 ft 427 kts 169°
2026-04-21 03:25 7.07192 -75.63447 37083 ft 426 kts 169°
2026-04-21 03:26 6.83879 -75.58813 37126 ft 426 kts 169°
2026-04-21 03:26 6.60617 -75.54207 37136 ft 426 kts 169°
2026-04-21 03:27 6.37354 -75.49589 37145 ft 426 kts 169°
2026-04-21 03:27 6.25900 -75.47331 37361 ft 425 kts 169°
2026-04-21 03:27 6.14300 -75.45035 37379 ft 424 kts 168°
2026-04-21 03:28 5.92809 -75.36413 36261 ft 441 kts 134°
2026-04-21 03:28 5.84132 -75.27503 33449 ft 447 kts 135°
2026-04-21 03:28 5.75498 -75.18710 31252 ft 433 kts 135°
2026-04-21 03:29 5.66437 -75.11224 29117 ft 417 kts 159°
2026-04-21 03:29 5.60830 -75.08996 27925 ft 412 kts 158°
2026-04-21 03:29 5.58191 -75.07900 27413 ft 409 kts 158°
2026-04-21 03:29 5.55578 -75.06806 26891 ft 406 kts 158°
2026-04-21 03:30 5.52973 -75.05717 26351 ft 403 kts 158°
2026-04-21 03:30 5.50386 -75.04640 25854 ft 400 kts 158°
2026-04-21 03:30 5.47827 -75.03579 25387 ft 397 kts 158°
2026-04-21 03:30 5.45285 -75.02528 24907 ft 394 kts 158°
2026-04-21 03:31 5.41719 -75.00719 24426 ft 385 kts 143°
2026-04-21 03:31 5.38156 -74.96880 23883 ft 369 kts 131°
2026-04-21 03:31 5.34892 -74.93038 23375 ft 365 kts 131°
2026-04-21 03:31 5.31603 -74.89157 22832 ft 363 kts 131°
2026-04-21 03:32 5.28353 -74.85320 22300 ft 358 kts 131°
2026-04-21 03:32 5.25146 -74.81532 21448 ft 355 kts 131°
2026-04-21 03:32 5.21959 -74.77774 20587 ft 352 kts 131°
2026-04-21 03:32 5.18790 -74.74036 19757 ft 351 kts 130°
2026-04-21 03:33 5.15621 -74.70297 18934 ft 351 kts 130°
2026-04-21 03:33 5.12463 -74.66565 18078 ft 351 kts 130°
2026-04-21 03:33 5.09319 -74.62850 17274 ft 348 kts 130°
2026-04-21 03:33 5.06184 -74.59152 16213 ft 353 kts 130°
2026-04-21 03:34 5.02994 -74.55393 15533 ft 347 kts 130°
2026-04-21 03:34 4.99882 -74.51728 14758 ft 344 kts 130°
2026-04-21 03:34 4.96794 -74.48087 14079 ft 341 kts 130°
2026-04-21 03:34 4.93735 -74.44478 13350 ft 335 kts 130°
2026-04-21 03:35 4.90793 -74.40991 12832 ft 324 kts 128°
2026-04-21 03:35 4.89457 -74.39237 12880 ft 309 kts 124°
2026-04-21 03:35 4.88222 -74.37535 12897 ft 295 kts 126°
2026-04-21 03:35 4.87011 -74.35922 12908 ft 283 kts 127°
2026-04-21 03:36 4.85848 -74.34390 12852 ft 272 kts 126°
2026-04-21 03:36 4.84707 -74.32883 12540 ft 271 kts 126°
2026-04-21 03:36 4.83567 -74.31375 12206 ft 271 kts 126°
2026-04-21 03:36 4.82426 -74.29865 11868 ft 272 kts 126°
2026-04-21 03:37 4.81283 -74.28354 11534 ft 273 kts 126°
2026-04-21 03:37 4.80136 -74.26837 11195 ft 273 kts 126°
2026-04-21 03:37 4.79015 -74.25356 10865 ft 263 kts 126°
2026-04-21 03:37 4.77949 -74.23948 10570 ft 244 kts 126°
2026-04-21 03:38 4.76961 -74.22640 10304 ft 225 kts 126°
2026-04-21 03:38 4.76051 -74.21438 10016 ft 207 kts 127°
2026-04-21 03:38 4.75225 -74.20346 9757 ft 187 kts 127°
2026-04-21 03:38 4.74467 -74.19343 9485 ft 172 kts 127°
2026-04-21 03:39 4.73766 -74.18416 9236 ft 162 kts 127°
2026-04-21 03:39 4.73094 -74.17528 9000 ft 158 kts 127°
2026-04-21 03:39 4.72441 -74.16652 8749 ft 156 kts 126°
2026-04-21 03:39 4.71790 -74.15784 8538 ft 154 kts 127°
2026-04-21 03:40 4.71135 -74.14930 8372 ft 153 kts 127°
2026-04-21 03:40 4.70596 -74.14225 8367 ft 91 kts 127°
2026-04-21 03:40 4.70328 -74.13868 8365 ft 53 kts 127°
2026-04-21 03:40 4.70144 -74.13676 8366 ft 29 kts 151°
2026-04-21 03:41 4.69985 -74.13607 8366 ft 20 kts 158°
2026-04-21 03:41 4.69893 -74.13610 8366 ft 13 kts 252°
2026-04-21 03:41 4.69942 -74.13684 8366 ft 13 kts 308°
2026-04-21 03:41 4.69998 -74.13760 8366 ft 14 kts 307°
2026-04-21 03:42 4.70059 -74.13841 8366 ft 15 kts 305°
2026-04-21 03:42 4.70123 -74.13927 8366 ft 16 kts 307°
2026-04-21 03:42 4.70193 -74.14018 8366 ft 17 kts 307°
2026-04-21 03:42 4.70266 -74.14113 8366 ft 18 kts 307°
2026-04-21 03:43 4.70340 -74.14214 8366 ft 18 kts 306°
2026-04-21 03:43 4.70405 -74.14303 8366 ft 11 kts 289°
2026-04-21 03:43 4.70358 -74.14354 8366 ft 11 kts 214°
2026-04-21 03:43 4.70296 -74.14398 8366 ft 11 kts 217°
2026-04-21 03:44 4.70233 -74.14445 8366 ft 12 kts 216°
2026-04-21 03:44 4.70165 -74.14495 8366 ft 13 kts 217°
2026-04-21 03:44 4.70093 -74.14549 8366 ft 13 kts 217°
2026-04-21 03:44 4.70035 -74.14563 8366 ft 9 kts 129°
2026-04-21 03:45 4.70000 -74.14517 8366 ft 8 kts 127°
2026-04-21 03:45 4.69971 -74.14479 8366 ft 6 kts 128°
2026-04-21 03:45 4.69949 -74.14450 8366 ft 6 kts 127°
2026-04-21 03:45 4.69911 -74.14414 8366 ft 5 kts 182°
2026-04-21 03:46 4.69883 -74.14444 8366 ft 2 kts 225°
2026-04-21 03:46 4.69878 -74.14450 8366 ft 0 kts 225°
2026-04-21 03:46 4.69877 -74.14450 8366 ft 0 kts 225°